Regional Weather Roundup
Issued by NWS Newport/Morehead, NC

Current Version | Previous Version | Graphics & Text | Print | Product List | Glossary On
Versions: 1 2 3 4 5 6 7 8 9 10 11 12 13 14 15 16 17 18 19 20 21 22 23 24 25 26 27 28 29 30 31 32 33 34 35 36 37 38 39 40 41 42 43 44 45 46 47 48 49 50
000 ASUS42 KMHX 171313 RWRMHX WEATHER ROUNDUP FOR EASTERN NORTH CAROLINA NATIONAL WEATHER SERVICE NEWPORT/MOREHEAD CITY NC 800 AM EST SUN DEC 17 2017 NOTE: "FAIR" INDICATES FEW OR NO CLOUDS BELOW 12,000 FEET WITH NO SIGNIFICANT WEATHER AND/OR OBSTRUCTIONS TO VISIBILITY NCZ015>017-031-032-045>047-102-103-171400- NORTH COAST CITY SKY/WX TMP DP RH WIND PRES REMARKS EDENTON NOT AVBL ELIZABETH CITY CLOUDY 33 32 96 CALM 30.30F KITTY HAWK SUNNY 37 31 78 CALM 30.30R MANTEO PTCLDY 33 30 87 CALM 30.31S $$ NCZ045>047-081-094-103-104-171400- CENTRAL COAST CITY SKY/WX TMP DP RH WIND PRES REMARKS FRISCO CLEAR 40 39 97 NW3 30.33R $$ NCZ095-097-098-100-101-171400- SOUTHERN COAST CITY SKY/WX TMP DP RH WIND PRES REMARKS BEAUFORT CLEAR 34 32 92 CALM 30.34R CEDAR ISLAND NOT AVBL JACKSONVILLE CLOUDY 29 28 96 CALM 30.33R PINEY ISLAND N/A N/A N/A N/A SW3 30.32S WILMINGTON CLOUDY 30 29 96 CALM 30.32F $$ NCZ011>013-027>030-043-044-078>080-089-090>093-098-171400- COASTAL PLAIN CITY SKY/WX TMP DP RH WIND PRES REMARKS AHOSKIE CLOUDY 26 26 97 CALM 30.30F CLINTON CLOUDY 29 29 100 CALM 30.33R ELIZABETHTOWN NOT AVBL GOLDSBORO PTCLDY 30 27 89 CALM 30.30R GREENVILLE CLOUDY 30 30 100 CALM 30.31S HAVELOCK PTCLDY 30 29 96 CALM 30.34R KENANSVILLE CLOUDY 27 25 93 CALM 30.33R FOG KINSTON PTCLDY 30 28 93 S5 30.33R NEW BERN CLOUDY 29 29 100 CALM 30.34R FOG RICHLANDS CLOUDY 29 27 92 CALM 30.33R ROCKY MOUNT MOCLDY 29 28 96 CALM 30.30S WASHINGTON CLOUDY 30 27 88 CALM 30.31F WHITEVILLE CLOUDY 30 29 96 CALM 30.31R $$ AMZ130-135-150-152-154-156-158-170-250-252-270-ANZ085-086-088-633-658-670-171400- MARINE OBSERVATIONS STATION/POSITION TIME TEMP WIND PRES WAVE SWELL AIR SEA DIR/SP/G HT/PER HT/PER (UTC) (F) (DEG/KT/KT) (MB) (FT/S) (FT/S) CHESAPEAKE LIGHT NOT AVBL 64 E VA BEACH 1250 51 59 290/ 6/ 8 1026.2 2/ 4 2/ 9 DUCK 1248 41 52 240/ 7/ 8 1025.6 2 E DUCK 1300 54 N/A 1/11 OREGON INLET 1236 41 45 250/ 4/ 5 1026.5 13E OREGON INLT 1248 59 N/A 2/10 2/10 HATTERAS CG 1248 46 50 290/ 8/ 9 1026.5 DIAMOND BUOY 1250 52 71 300/ 6/ 10 1027.1 2/10 2/10 CAPE LOOKOUT 1200 330/ 5/ 6 1027.0 BEAUFORT LAB 1248 42 50 320/ 3/ 5 1027.0 30 SE NEW RVR IN 1208 52 63 310/ 4/ 8 1026.9 30 SE NEW RVR IN 1300 63 N/A 2/10 27 SE WRIGHTSVLE 1208 52 62 290/ 6/ 10 1026.8 5 SE WRIGHTSVLE 1208 48 56 290/ 6/ 8 1026.2 225 S CAPE HAT 1150 63 74 360/ 4/ 6 1026.0 3/ 9 3/ 9 41 SE CHARLESTON 1250 57 30/ 4/ 8 1026.1 2/ 8 2/ 8 $$

USA.gov is the U.S. government's official web portal to all federal, state and local government web resources and services.